Retour au catalogue

STARLINK-30482

ActifCommunicationsVLEO
NORAD 57907·PAYLOAD·🇺🇸 United States

Lancé Sep 20, 2023 depuis Cape Canaveral Space Force Station

Loading…

Prochains Passages (prochaines 24 heures)

TLE

FraisSource: CelesTrak SupGP

Époque: Sep 15, 2026, 02:55 UTC

1 57907C 23146S   26258.12201389  .00047335  00000+0  17149-2 0  2586
2 57907  43.0011 324.8309 0001628 264.6080  46.6716 15.27546359    19

Suivez STARLINK-30482 en temps réel avec AllMySat

Download on the App Store